EW9507 Weather Reports


time (UTC)temp
C
wind
direction
speed
KPH
gust
KPH
rain 1hr
cm
rain 24hr
cm
rain mn
cm
humidity
%
barometer
mb
20260906220105 32 223 17.7 32.2 0.00 0.00 0.00 14 1001.2
20260906214559 32 225 25.7 41.8 0.00 0.00 0.00 13 1001.2
20260906213052 33 223 29.0 48.3 0.00 0.00 0.00 13 1001.5
20260906211547 33 217 30.6 49.9 0.00 0.00 0.00 12 1001.8
20260906210047 33 225 20.9 43.5 0.00 0.00 0.00 13 1002.1
20260906204543 33 225 27.4 43.5 0.00 0.00 0.00 14 1002.2
20260906203041 33 206 30.6 43.5 0.00 0.00 0.00 14 1002.1
20260906201544 32 219 25.7 40.2 0.00 0.00 0.00 13 1002.2
20260906200037 32 219 22.5 32.2 0.00 0.00 0.00 14 1002.3
20260906194534 32 221 12.9 37.0 0.00 0.00 0.00 14 1002.5
20260906193030 31 184 20.9 32.2 0.00 0.00 0.00 18 1002.9
20260906191529 31 281 22.5 46.7 0.00 0.00 0.00 18 1003.0
20260906191527 31 257 22.5 46.7 0.00 0.00 0.00 18 1003.0
20260906190025 31 227 22.5 37.0 0.00 0.00 0.00 18 1003.2
20260906184524 31 206 11.3 27.4 0.00 0.00 0.00 22 1003.4
20260906183023 30 236 17.7 29.0 0.00 0.00 0.00 23 1003.8
20260906181513 30 151 16.1 29.0 0.00 0.00 0.00 26 1004.0
20260906180008 28 209 12.9 20.9 0.00 0.00 0.00 28 1004.3
20260906174510 28 211 14.5 24.1 0.00 0.00 0.00 28 1004.6
20260906173001 27 205 12.9 25.7 0.00 0.00 0.00 30 1004.9
20260906171604 27 170 14.5 24.1 0.00 0.00 0.00 32 1005.1
20260906171501 27 171 9.7 20.9 0.00 0.00 0.00 32 1005.1
20260906170058 27 177 12.9 24.1 0.00 0.00 0.00 33 1005.4
20260906164555 26 190 12.9 27.4 0.00 0.00 0.00 37 1005.5
20260906163020 26 166 12.9 22.5 0.00 0.00 0.00 41 1005.6
20260906161517 25 162 9.7 19.3 0.00 0.00 0.00 41 1005.5
20260906160044 24 169 12.9 20.9 0.00 0.00 0.00 44 1005.6
20260906154542 23 189 12.9 19.3 0.00 0.00 0.00 47 1005.5
20260906153044 23 176 11.3 17.7 0.00 0.00 0.00 48 1005.5
20260906151533 22 168 11.3 16.1 0.00 0.00 0.00 56 1005.6
20260906150026 21 141 9.7 20.9 0.00 0.00 0.00 60 1005.8
20260906144523 20 175 14.5 22.5 0.00 0.00 0.00 66 1006.0
20260906143055 19 152 14.5 22.5 0.00 0.00 0.00 70 1006.2
20260906141551 17 184 11.3 17.7 0.00 0.00 0.00 73 1006.2
20260906140057 17 190 11.3 17.7 0.00 0.00 0.00 73 1006.0
20260906134547 16 160 11.3 17.7 0.00 0.00 0.00 77 1005.9
20260906133046 15 155 9.7 14.5 0.00 0.00 0.00 78 1005.8
20260906131603 15 153 11.3 14.5 0.00 0.00 0.00 77 1005.8
20260906130015 15 186 4.8 12.9 0.00 0.00 0.00 78 1005.7
20260906124512 14 167 4.8 8.0 0.00 0.00 0.00 80 1005.6
20260906123009 14 274 4.8 8.0 0.00 0.00 0.00 78 1005.4
20260906121508 14 208 6.4 12.9 0.00 0.00 0.00 81 1005.2
20260906120008 14 221 4.8 9.7 0.00 0.00 0.00 77 1005.2
20260906114506 15 189 8.0 9.7 0.00 0.00 0.00 78 1005.3
20260906113006 15 169 4.8 8.0 0.00 0.00 0.00 79 1005.3
20260906111501 13 262 3.2 9.7 0.00 0.00 0.00 77 1005.5
20260906110100 15 226 6.4 8.0 0.00 0.00 0.00 76 1005.2
20260906104600 15 229 3.2 4.8 0.00 0.00 0.00 76 1005.3
20260906103055 14 141 3.2 6.4 0.00 0.00 0.00 76 1005.3
20260906101557 15 210 4.8 8.0 0.00 0.00 0.00 71 1005.3
20260906100049 16 231 4.8 9.7 0.00 0.00 0.00 70 1005.1
20260906094547 17 182 11.3 14.5 0.00 0.00 0.00 69 1005.0
20260906093048 17 136 11.3 19.3 0.00 0.00 0.00 68 1005.0
20260906091533 17 134 16.1 20.9 0.00 0.00 0.00 70 1005.0
20260906090032 16 174 4.8 8.0 0.00 0.00 0.00 68 1004.6
20260906084533 16 197 1.6 6.4 0.00 0.00 0.00 66 1004.5
20260906083028 16 219 6.4 9.7 0.00 0.00 0.00 66 1004.5
20260906081528 17 188 4.8 8.0 0.00 0.00 0.00 64 1004.5
20260906080022 17 155 8.0 14.5 0.00 0.00 0.00 63 1004.6
20260906074521 18 146 9.7 16.1 0.00 0.00 0.00 63 1004.7
20260906073016 18 138 8.0 11.3 0.00 0.00 0.00 60 1004.7
20260906071515 19 154 9.7 14.5 0.00 0.00 0.00 59 1004.7
20260906070017 19 144 9.7 16.1 0.00 0.00 0.00 59 1004.8
20260906064518 19 138 11.3 14.5 0.00 0.00 0.00 58 1004.8
20260906063014 20 151 11.3 16.1 0.00 0.00 0.00 57 1005.0
20260906061514 19 141 11.3 19.3 0.00 0.00 0.00 57 1005.3
20260906060057 18 127 9.7 14.5 0.00 0.00 0.00 55 1005.2
20260906054546 20 149 9.7 16.1 0.00 0.00 0.00 52 1005.0
20260906053039 20 164 11.3 14.5 0.00 0.00 0.00 51 1005.0
20260906051542 21 145 6.4 12.9 0.00 0.00 0.00 49 1005.1
20260906050038 21 163 8.0 12.9 0.00 0.00 0.00 50 1005.3
20260906044537 21 191 9.7 12.9 0.00 0.00 0.00 50 1005.4
20260906043006 22 159 6.4 11.3 0.00 0.00 0.00 48 1005.3
20260906041511 22 165 8.0 12.9 0.00 0.00 0.00 46 1005.4
20260906034535 22 159 9.7 12.9 0.00 0.00 0.00 42 1005.2
20260906033033 23 149 9.7 16.1 0.00 0.00 0.00 40 1005.2
20260906031629 23 146 11.3 17.7 0.00 0.00 0.00 39 1005.0
20260906030031 24 151 11.3 17.7 0.00 0.00 0.00 36 1005.0
20260906030028 24 144 11.3 17.7 0.00 0.00 0.00 36 1005.0
20260906024526 24 139 17.7 27.4 0.00 0.00 0.00 34 1005.1
20260906023027 22 170 3.2 6.4 0.00 0.00 0.00 31 1004.6
20260906021559 23 269 0.0 9.7 0.00 0.00 0.00 29 1004.4
20260906020056 23 141 8.0 11.3 0.00 0.00 0.00 29 1004.3
20260906014532 25 239 6.4 9.7 0.00 0.00 0.00 27 1004.2
20260906013024 27 151 6.4 9.7 0.00 0.00 0.00 23 1004.2
20260906011525 27 152 8.0 11.3 0.00 0.00 0.00 23 1004.1
20260906010021 28 203 8.0 9.7 0.00 0.00 0.00 22 1004.0
20260906004519 29 143 8.0 17.7 0.00 0.00 0.00 20 1003.9
20260906003020 30 166 8.0 17.7 0.00 0.00 0.00 19 1003.8
20260906001515 31 159 14.5 22.5 0.00 0.00 0.00 18 1003.7
20260906000117 31 157 11.3 16.1 0.00 0.00 0.00 19 1003.8
20260905234515 31 166 8.0 17.7 0.00 0.00 0.00 18 1003.8
20260905233012 30 195 6.4 14.5 0.00 0.00 0.00 19 1003.7
20260905231510 31 182 9.7 20.9 0.00 0.00 0.00 18 1003.7
20260905230009 32 138 12.9 19.3 0.00 0.00 0.00 18 1003.6
20260905224516 31 178 8.0 24.1 0.00 0.00 0.00 18 1003.7
20260905223007 32 163 12.9 29.0 0.00 0.00 0.00 17 1003.8
20260905221509 31 203 8.0 19.3 0.00 0.00 0.00 18 1004.0